ARIANE 44LP DEB, 33541

Orbit data source: Space-Track

ARIANE 44LP DEB, 33541 is space debris in HEO originally from a launch on Sun, 11 Dec 1988 UTC launched from the French Guiana (FRGUI). Debris objects in space refer to the collection of defunct objects orbiting the Earth. Examples of debris include non-operational satellites, rocket bodies, and fragments generated from explosions, collisions, or faulty payload assembly.

Loading next visibility...
Identifier
33541, 1988-109Q
Orbit
HEO
Country
Flag of FRFR
Related business
Manufacturer
Unknown
Mission
Spacecraft
Bus & Motor
Unknown
Mass
Unknown
Launch date (UTC)
1988-12-11 (38 years ago)
Launch vehicle
Unknown
Launch site
French Guiana (FRGUI)
Object type
Payload
Rocket body
Debris
Shape & HBR
Unknown shape, 0.3 m
Radar Cross Section
Medium (>0.1 m² and <1 m²)

Expand to show TLE details & history
Last TLE update: 2 days ago

TLE from 2 days ago
0 ARIANE 44LP DEB
1 33541U 88109Q   26256.08660329  .00000057  00000-0  45610-2 0  9997
2 33541   6.6209 252.4797 7100957  34.5857  42.4725  2.23932646194294
Epoch: 2026-09-13T02:04Z
TLE epoch observation values (Epoch: 2026-09-13T02:04:42.524Z)
Latitude
1.74432°
Longitude
33.73969°
Altitude
16,054.928 km
Speed
4.403 km/s
True Right ascension
03h 48m 00s
True Declination
1° 44' 28"
Sunlit
Object was in daylight at epoch
Visualization orbit readout
Latitude
Unknown
Longitude
Unknown
Altitude
Unknown
Speed
Unknown
Apparent Right ascension
Unknown
Apparent Declination
Unknown
Sunlit
N/A
Visualization observer readout
Local Sidereal Time
07:33:27
Azimuth
Unknown
Elevation
Unknown
Doppler factor
Unknown
Orbital elements
Apogee altitude
35,833.522 km
Perigee altitude
777.803 km
Semi-major axis
24,683.8 km
Eccentricity
0.7101
Inclination
6.6209°
RAAN
252.4797°
Arg. of periapsis
34.5857°
True anomaly
129.9644°
Mean anomaly
42.4725°
Eccentric anomaly
82.84079°
Mean motion
0.55966 °/min
Orbital period
643.25 mins
BSTAR
0.004561
Loading maneuver chart data...
Computing Atmospheric mass density...
Loading historical data...
Loading historical data...
Loading historical data...
Loading historical data...
Loading historical data...
Loading historical data...
Loading historical data...

Documentation

Showing up to 5 results
|